Weather in Alkho

Russia / Republic of Karelia     61°19′08″N   29°43′24″E
temp.,
°C
wind,
m/s
gust,
m/s
humid.,
%
clouds,
%
prec.,
mm/h
press.,
hPa
HPBL,
m
31 july, sat
sat3100:00+14sse277994 0.0 995203
03:00+14sse398599 0.0 994336
06:00+13se2794100 0.7 992384
09:00+15ese118468 0.7 992485
12:00+20nw235984 0.1 9941240
15:00+22wnw355174 0.3 9951614
18:00+21w366273 0.8 9971019
21:00+17sw256946 0.9 999109
1 august, sun
sun100:00+16sw497657 0.0 999223
03:00+15ssw389047 0.0 1000252
06:00+15sw399734 0.0 1000303
09:00+19sw3573100 0.1 999682
12:00+21s566495 0.4 9991217
15:00+21sw596791 9.1 9981380
18:00+18ssw598475 1.1 998879
21:00+16sw5129437 2.2 998674
2 august, mon
mon200:00+15sw5139442 0.2 1000667
03:00+13sw412931 0.2 1001497
06:00+13sw4129299 0.0 1002470
09:00+18sw586916 0.0 10021018
12:00+22sw575039 0.0 10011607
15:00+22wsw4648100 0.0 10011455
18:00+21sw3549100 0.0 10001136
21:00+17sw2268100 0.0 100031
3 august, tue
tue300:00+15w2282100 0.0 100053
03:00+13w2491100 0.0 99973
06:00+13nw269666 0.0 1000226
09:00+15nw4679100 0.0 1001653
12:00+16nw4670100 0.0 10031002
15:00+17nw4661100 0.0 10041370
18:00+19nw464341 0.0 10051717
21:00+15wnw36573 0.0 1007115
4 august, wed
wed400:00+11nnw23681 0.0 100941
03:00+10nw11785 0.0 101120
06:00+11nnw11756 0.0 101222
09:00+18w014980 0.0 1014410
12:00+21ene113870 0.0 10151634
15:00+20se334176 0.0 10151587
18:00+18ese2455100 0.0 1016212
21:00+15se26639 0.0 1017130